Netzbetreibername:;Maintal-Werke GmbH;;
Netz- oder Umspannebene:;Netzgebiet;;
Lastgangtyp:;Summenlast der Netzverluste;;
gesetzliche Grundlage:;� 23c Abs. 3 Nr. 3 EnWG;;
Einheit:;kW;;
Betrachtungszeitraum:;01.01.2023;31.12.2023;
;;;
Datum;von;bis;Wert
01.01.2023;00:00;00:15;464
01.01.2023;00:15;00:30;441
01.01.2023;00:30;00:45;444
01.01.2023;00:45;01:00;428
01.01.2023;01:00;01:15;414
01.01.2023;01:15;01:30;397
01.01.2023;01:30;01:45;382
01.01.2023;01:45;02:00;356
01.01.2023;02:00;02:15;345
01.01.2023;02:15;02:30;329
01.01.2023;02:30;02:45;322
01.01.2023;02:45;03:00;309
01.01.2023;03:00;03:15;312
01.01.2023;03:15;03:30;304
01.01.2023;03:30;03:45;297
01.01.2023;03:45;04:00;287
01.01.2023;04:00;04:15;285
01.01.2023;04:15;04:30;295
01.01.2023;04:30;04:45;282
01.01.2023;04:45;05:00;286
01.01.2023;05:00;05:15;283
01.01.2023;05:15;05:30;285
01.01.2023;05:30;05:45;289
01.01.2023;05:45;06:00;279
01.01.2023;06:00;06:15;279
01.01.2023;06:15;06:30;276
01.01.2023;06:30;06:45;268
01.01.2023;06:45;07:00;269
01.01.2023;07:00;07:15;268
01.01.2023;07:15;07:30;263
01.01.2023;07:30;07:45;277
01.01.2023;07:45;08:00;273
01.01.2023;08:00;08:15;283
01.01.2023;08:15;08:30;283
01.01.2023;08:30;08:45;290
01.01.2023;08:45;09:00;303
01.01.2023;09:00;09:15;316
01.01.2023;09:15;09:30;327
01.01.2023;09:30;09:45;338
01.01.2023;09:45;10:00;360
01.01.2023;10:00;10:15;361
01.01.2023;10:15;10:30;381
01.01.2023;10:30;10:45;409
01.01.2023;10:45;11:00;415
01.01.2023;11:00;11:15;443
01.01.2023;11:15;11:30;457
01.01.2023;11:30;11:45;480
01.01.2023;11:45;12:00;488
01.01.2023;12:00;12:15;516
01.01.2023;12:15;12:30;522
01.01.2023;12:30;12:45;519
01.01.2023;12:45;13:00;516
01.01.2023;13:00;13:15;532
01.01.2023;13:15;13:30;530
01.01.2023;13:30;13:45;512
01.01.2023;13:45;14:00;503
01.01.2023;14:00;14:15;497
01.01.2023;14:15;14:30;488
01.01.2023;14:30;14:45;491
01.01.2023;14:45;15:00;500
01.01.2023;15:00;15:15;505
01.01.2023;15:15;15:30;508
01.01.2023;15:30;15:45;520
01.01.2023;15:45;16:00;513
01.01.2023;16:00;16:15;524
01.01.2023;16:15;16:30;538
01.01.2023;16:30;16:45;577
01.01.2023;16:45;17:00;609
01.01.2023;17:00;17:15;635
01.01.2023;17:15;17:30;636
01.01.2023;17:30;17:45;670
01.01.2023;17:45;18:00;667
01.01.2023;18:00;18:15;654
01.01.2023;18:15;18:30;663
01.01.2023;18:30;18:45;653
01.01.2023;18:45;19:00;637
01.01.2023;19:00;19:15;630
01.01.2023;19:15;19:30;624
01.01.2023;19:30;19:45;606
01.01.2023;19:45;20:00;586
01.01.2023;20:00;20:15;579
01.01.2023;20:15;20:30;560
01.01.2023;20:30;20:45;585
01.01.2023;20:45;21:00;549
01.01.2023;21:00;21:15;559
01.01.2023;21:15;21:30;535
01.01.2023;21:30;21:45;527
01.01.2023;21:45;22:00;533
01.01.2023;22:00;22:15;540
01.01.2023;22:15;22:30;514
01.01.2023;22:30;22:45;530
01.01.2023;22:45;23:00;518
01.01.2023;23:00;23:15;490
01.01.2023;23:15;23:30;461
01.01.2023;23:30;23:45;461
02.01.2023;23:45;00:00;439
02.01.2023;00:00;00:15;422
02.01.2023;00:15;00:30;383
02.01.2023;00:30;00:45;373
02.01.2023;00:45;01:00;364
02.01.2023;01:00;01:15;340
02.01.2023;01:15;01:30;333
02.01.2023;01:30;01:45;319
02.01.2023;01:45;02:00;303
02.01.2023;02:00;02:15;295
02.01.2023;02:15;02:30;286,0259777
02.01.2023;02:30;02:45;284,8570492
02.01.2023;02:45;03:00;279,9733638
02.01.2023;03:00;03:15;278,9655232
02.01.2023;03:15;03:30;275
02.01.2023;03:30;03:45;278
02.01.2023;03:45;04:00;279
02.01.2023;04:00;04:15;281
02.01.2023;04:15;04:30;281
02.01.2023;04:30;04:45;286
02.01.2023;04:45;05:00;288
02.01.2023;05:00;05:15;305
02.01.2023;05:15;05:30;309
02.01.2023;05:30;05:45;320
02.01.2023;05:45;06:00;324
02.01.2023;06:00;06:15;337
02.01.2023;06:15;06:30;335
02.01.2023;06:30;06:45;348
02.01.2023;06:45;07:00;360
02.01.2023;07:00;07:15;378
02.01.2023;07:15;07:30;393
02.01.2023;07:30;07:45;406
02.01.2023;07:45;08:00;427
02.01.2023;08:00;08:15;446
02.01.2023;08:15;08:30;464
02.01.2023;08:30;08:45;479
02.01.2023;08:45;09:00;505
02.01.2023;09:00;09:15;511
02.01.2023;09:15;09:30;512
02.01.2023;09:30;09:45;529
02.01.2023;09:45;10:00;534
02.01.2023;10:00;10:15;554
02.01.2023;10:15;10:30;555
02.01.2023;10:30;10:45;576
02.01.2023;10:45;11:00;582
02.01.2023;11:00;11:15;605
02.01.2023;11:15;11:30;606
02.01.2023;11:30;11:45;631
02.01.2023;11:45;12:00;643
02.01.2023;12:00;12:15;647
02.01.2023;12:15;12:30;657
02.01.2023;12:30;12:45;688
02.01.2023;12:45;13:00;681
02.01.2023;13:00;13:15;687
02.01.2023;13:15;13:30;684
02.01.2023;13:30;13:45;663
02.01.2023;13:45;14:00;659
02.01.2023;14:00;14:15;650
02.01.2023;14:15;14:30;651
02.01.2023;14:30;14:45;639
02.01.2023;14:45;15:00;637
02.01.2023;15:00;15:15;624
02.01.2023;15:15;15:30;633
02.01.2023;15:30;15:45;627
02.01.2023;15:45;16:00;636
02.01.2023;16:00;16:15;646
02.01.2023;16:15;16:30;660
02.01.2023;16:30;16:45;695
02.01.2023;16:45;17:00;726
02.01.2023;17:00;17:15;740
02.01.2023;17:15;17:30;753
02.01.2023;17:30;17:45;779
02.01.2023;17:45;18:00;779
02.01.2023;18:00;18:15;767
02.01.2023;18:15;18:30;769
02.01.2023;18:30;18:45;773
02.01.2023;18:45;19:00;757
02.01.2023;19:00;19:15;729
02.01.2023;19:15;19:30;711
02.01.2023;19:30;19:45;707
02.01.2023;19:45;20:00;707
02.01.2023;20:00;20:15;672
02.01.2023;20:15;20:30;645
02.01.2023;20:30;20:45;654
02.01.2023;20:45;21:00;633
02.01.2023;21:00;21:15;644
02.01.2023;21:15;21:30;620
02.01.2023;21:30;21:45;618
02.01.2023;21:45;22:00;635
02.01.2023;22:00;22:15;630
02.01.2023;22:15;22:30;598
02.01.2023;22:30;22:45;609
02.01.2023;22:45;23:00;599
02.01.2023;23:00;23:15;556
02.01.2023;23:15;23:30;515
02.01.2023;23:30;23:45;523
03.01.2023;23:45;00:00;516
03.01.2023;00:00;00:15;471
03.01.2023;00:15;00:30;434
03.01.2023;00:30;00:45;423
03.01.2023;00:45;01:00;402
03.01.2023;01:00;01:15;375
03.01.2023;01:15;01:30;371
03.01.2023;01:30;01:45;348
03.01.2023;01:45;02:00;331
03.01.2023;02:00;02:15;321
03.01.2023;02:15;02:30;312
03.01.2023;02:30;02:45;314
03.01.2023;02:45;03:00;303
03.01.2023;03:00;03:15;303
03.01.2023;03:15;03:30;304
03.01.2023;03:30;03:45;301
03.01.2023;03:45;04:00;297
03.01.2023;04:00;04:15;311
03.01.2023;04:15;04:30;314
03.01.2023;04:30;04:45;320
03.01.2023;04:45;05:00;324
03.01.2023;05:00;05:15;341
03.01.2023;05:15;05:30;343
03.01.2023;05:30;05:45;353
03.01.2023;05:45;06:00;363
03.01.2023;06:00;06:15;363
03.01.2023;06:15;06:30;377
03.01.2023;06:30;06:45;379
03.01.2023;06:45;07:00;385
03.01.2023;07:00;07:15;394
03.01.2023;07:15;07:30;417
03.01.2023;07:30;07:45;437
03.01.2023;07:45;08:00;457
03.01.2023;08:00;08:15;489
03.01.2023;08:15;08:30;488
03.01.2023;08:30;08:45;512
03.01.2023;08:45;09:00;509
03.01.2023;09:00;09:15;525
03.01.2023;09:15;09:30;536
03.01.2023;09:30;09:45;525
03.01.2023;09:45;10:00;529
03.01.2023;10:00;10:15;535
03.01.2023;10:15;10:30;533
03.01.2023;10:30;10:45;526
03.01.2023;10:45;11:00;531
03.01.2023;11:00;11:15;542
03.01.2023;11:15;11:30;550
03.01.2023;11:30;11:45;552
03.01.2023;11:45;12:00;558
03.01.2023;12:00;12:15;588
03.01.2023;12:15;12:30;619
03.01.2023;12:30;12:45;626
03.01.2023;12:45;13:00;636
03.01.2023;13:00;13:15;633
03.01.2023;13:15;13:30;614
03.01.2023;13:30;13:45;617
03.01.2023;13:45;14:00;621
03.01.2023;14:00;14:15;609
03.01.2023;14:15;14:30;610
03.01.2023;14:30;14:45;594
03.01.2023;14:45;15:00;588
03.01.2023;15:00;15:15;588
03.01.2023;15:15;15:30;596
03.01.2023;15:30;15:45;617
03.01.2023;15:45;16:00;613
03.01.2023;16:00;16:15;611
03.01.2023;16:15;16:30;636
03.01.2023;16:30;16:45;662
03.01.2023;16:45;17:00;696
03.01.2023;17:00;17:15;717
03.01.2023;17:15;17:30;755
03.01.2023;17:30;17:45;788
03.01.2023;17:45;18:00;795
03.01.2023;18:00;18:15;788
03.01.2023;18:15;18:30;788
03.01.2023;18:30;18:45;777
03.01.2023;18:45;19:00;767
03.01.2023;19:00;19:15;746
03.01.2023;19:15;19:30;734
03.01.2023;19:30;19:45;724
03.01.2023;19:45;20:00;699
03.01.2023;20:00;20:15;677
03.01.2023;20:15;20:30;664
03.01.2023;20:30;20:45;682
03.01.2023;20:45;21:00;654
03.01.2023;21:00;21:15;670
03.01.2023;21:15;21:30;657
03.01.2023;21:30;21:45;630
03.01.2023;21:45;22:00;650
03.01.2023;22:00;22:15;645
03.01.2023;22:15;22:30;629
03.01.2023;22:30;22:45;619
03.01.2023;22:45;23:00;621
03.01.2023;23:00;23:15;585
03.01.2023;23:15;23:30;545
03.01.2023;23:30;23:45;545
04.01.2023;23:45;00:00;536
04.01.2023;00:00;00:15;508
04.01.2023;00:15;00:30;488
04.01.2023;00:30;00:45;467
04.01.2023;00:45;01:00;448
04.01.2023;01:00;01:15;419
04.01.2023;01:15;01:30;405
04.01.2023;01:30;01:45;389
04.01.2023;01:45;02:00;368
04.01.2023;02:00;02:15;355
04.01.2023;02:15;02:30;343
04.01.2023;02:30;02:45;330
04.01.2023;02:45;03:00;330
04.01.2023;03:00;03:15;320
04.01.2023;03:15;03:30;324
04.01.2023;03:30;03:45;323
04.01.2023;03:45;04:00;320
04.01.2023;04:00;04:15;316
04.01.2023;04:15;04:30;319
04.01.2023;04:30;04:45;322
04.01.2023;04:45;05:00;322
04.01.2023;05:00;05:15;335
04.01.2023;05:15;05:30;346
04.01.2023;05:30;05:45;344
04.01.2023;05:45;06:00;352
04.01.2023;06:00;06:15;365
04.01.2023;06:15;06:30;371
04.01.2023;06:30;06:45;384
04.01.2023;06:45;07:00;390
04.01.2023;07:00;07:15;414
04.01.2023;07:15;07:30;436
04.01.2023;07:30;07:45;452
04.01.2023;07:45;08:00;471
04.01.2023;08:00;08:15;499
04.01.2023;08:15;08:30;514
04.01.2023;08:30;08:45;518
04.01.2023;08:45;09:00;542
04.01.2023;09:00;09:15;553
04.01.2023;09:15;09:30;563
04.01.2023;09:30;09:45;582
04.01.2023;09:45;10:00;590
04.01.2023;10:00;10:15;608
04.01.2023;10:15;10:30;604
04.01.2023;10:30;10:45;625
04.01.2023;10:45;11:00;629
04.01.2023;11:00;11:15;649
04.01.2023;11:15;11:30;658
04.01.2023;11:30;11:45;666
04.01.2023;11:45;12:00;679
04.01.2023;12:00;12:15;688
04.01.2023;12:15;12:30;689
04.01.2023;12:30;12:45;705
04.01.2023;12:45;13:00;707
04.01.2023;13:00;13:15;697
04.01.2023;13:15;13:30;676
04.01.2023;13:30;13:45;676
04.01.2023;13:45;14:00;674
04.01.2023;14:00;14:15;683
04.01.2023;14:15;14:30;671
04.01.2023;14:30;14:45;679
04.01.2023;14:45;15:00;668
04.01.2023;15:00;15:15;676
04.01.2023;15:15;15:30;676
04.01.2023;15:30;15:45;654
04.01.2023;15:45;16:00;664
04.01.2023;16:00;16:15;672
04.01.2023;16:15;16:30;681
04.01.2023;16:30;16:45;704
04.01.2023;16:45;17:00;736
04.01.2023;17:00;17:15;755
04.01.2023;17:15;17:30;772
04.01.2023;17:30;17:45;775
04.01.2023;17:45;18:00;789
04.01.2023;18:00;18:15;806
04.01.2023;18:15;18:30;798
04.01.2023;18:30;18:45;787
04.01.2023;18:45;19:00;790
04.01.2023;19:00;19:15;782
04.01.2023;19:15;19:30;757
04.01.2023;19:30;19:45;741
04.01.2023;19:45;20:00;704
04.01.2023;20:00;20:15;711
04.01.2023;20:15;20:30;660
04.01.2023;20:30;20:45;685
04.01.2023;20:45;21:00;658
04.01.2023;21:00;21:15;666
04.01.2023;21:15;21:30;651
04.01.2023;21:30;21:45;620
04.01.2023;21:45;22:00;648
04.01.2023;22:00;22:15;633
04.01.2023;22:15;22:30;593
04.01.2023;22:30;22:45;605
04.01.2023;22:45;23:00;597
04.01.2023;23:00;23:15;583
04.01.2023;23:15;23:30;535
04.01.2023;23:30;23:45;526
05.01.2023;23:45;00:00;518
05.01.2023;00:00;00:15;489
05.01.2023;00:15;00:30;461
05.01.2023;00:30;00:45;437
05.01.2023;00:45;01:00;425
05.01.2023;01:00;01:15;394
05.01.2023;01:15;01:30;383
05.01.2023;01:30;01:45;364
05.01.2023;01:45;02:00;347
05.01.2023;02:00;02:15;335
05.01.2023;02:15;02:30;325
05.01.2023;02:30;02:45;319
05.01.2023;02:45;03:00;311
05.01.2023;03:00;03:15;305
05.01.2023;03:15;03:30;301
05.01.2023;03:30;03:45;306
05.01.2023;03:45;04:00;308
05.01.2023;04:00;04:15;303
05.01.2023;04:15;04:30;308
05.01.2023;04:30;04:45;312
05.01.2023;04:45;05:00;315
05.01.2023;05:00;05:15;324
05.01.2023;05:15;05:30;329
05.01.2023;05:30;05:45;338
05.01.2023;05:45;06:00;342
05.01.2023;06:00;06:15;354
05.01.2023;06:15;06:30;359
05.01.2023;06:30;06:45;370
05.01.2023;06:45;07:00;388
05.01.2023;07:00;07:15;405
05.01.2023;07:15;07:30;425
05.01.2023;07:30;07:45;430
05.01.2023;07:45;08:00;447
05.01.2023;08:00;08:15;475
05.01.2023;08:15;08:30;502
05.01.2023;08:30;08:45;504
05.01.2023;08:45;09:00;523
05.01.2023;09:00;09:15;529
05.01.2023;09:15;09:30;517
05.01.2023;09:30;09:45;541
05.01.2023;09:45;10:00;551
05.01.2023;10:00;10:15;559
05.01.2023;10:15;10:30;553
05.01.2023;10:30;10:45;565
05.01.2023;10:45;11:00;562
05.01.2023;11:00;11:15;569
05.01.2023;11:15;11:30;602
05.01.2023;11:30;11:45;582
05.01.2023;11:45;12:00;601
05.01.2023;12:00;12:15;597
05.01.2023;12:15;12:30;609
05.01.2023;12:30;12:45;628
05.01.2023;12:45;13:00;629
05.01.2023;13:00;13:15;610
05.01.2023;13:15;13:30;599
05.01.2023;13:30;13:45;604
05.01.2023;13:45;14:00;581
05.01.2023;14:00;14:15;584
05.01.2023;14:15;14:30;574
05.01.2023;14:30;14:45;562
05.01.2023;14:45;15:00;568
05.01.2023;15:00;15:15;571
05.01.2023;15:15;15:30;583
05.01.2023;15:30;15:45;572
05.01.2023;15:45;16:00;596
05.01.2023;16:00;16:15;605
05.01.2023;16:15;16:30;642
05.01.2023;16:30;16:45;655
05.01.2023;16:45;17:00;683
05.01.2023;17:00;17:15;720
05.01.2023;17:15;17:30;758
05.01.2023;17:30;17:45;772
05.01.2023;17:45;18:00;781
05.01.2023;18:00;18:15;790
05.01.2023;18:15;18:30;793
05.01.2023;18:30;18:45;789
05.01.2023;18:45;19:00;762
05.01.2023;19:00;19:15;754
05.01.2023;19:15;19:30;727
05.01.2023;19:30;19:45;728
05.01.2023;19:45;20:00;710
05.01.2023;20:00;20:15;684
05.01.2023;20:15;20:30;671
05.01.2023;20:30;20:45;678
05.01.2023;20:45;21:00;657
05.01.2023;21:00;21:15;662
05.01.2023;21:15;21:30;649
05.01.2023;21:30;21:45;617
05.01.2023;21:45;22:00;627
05.01.2023;22:00;22:15;612
05.01.2023;22:15;22:30;591
05.01.2023;22:30;22:45;599
05.01.2023;22:45;23:00;585
05.01.2023;23:00;23:15;555
05.01.2023;23:15;23:30;511
05.01.2023;23:30;23:45;512
06.01.2023;23:45;00:00;502
06.01.2023;00:00;00:15;471
06.01.2023;00:15;00:30;427
06.01.2023;00:30;00:45;414
06.01.2023;00:45;01:00;391
06.01.2023;01:00;01:15;372
06.01.2023;01:15;01:30;356
06.01.2023;01:30;01:45;345
06.01.2023;01:45;02:00;329
06.01.2023;02:00;02:15;312
06.01.2023;02:15;02:30;302
06.01.2023;02:30;02:45;291
06.01.2023;02:45;03:00;288
06.01.2023;03:00;03:15;288
06.01.2023;03:15;03:30;282
06.01.2023;03:30;03:45;284
06.01.2023;03:45;04:00;291
06.01.2023;04:00;04:15;291
06.01.2023;04:15;04:30;290
06.01.2023;04:30;04:45;294
06.01.2023;04:45;05:00;295
06.01.2023;05:00;05:15;313
06.01.2023;05:15;05:30;316
06.01.2023;05:30;05:45;318
06.01.2023;05:45;06:00;328
06.01.2023;06:00;06:15;335
06.01.2023;06:15;06:30;354
06.01.2023;06:30;06:45;364
06.01.2023;06:45;07:00;371
06.01.2023;07:00;07:15;396
06.01.2023;07:15;07:30;413
06.01.2023;07:30;07:45;426
06.01.2023;07:45;08:00;452
06.01.2023;08:00;08:15;480
06.01.2023;08:15;08:30;503
06.01.2023;08:30;08:45;504
06.01.2023;08:45;09:00;519
06.01.2023;09:00;09:15;531
06.01.2023;09:15;09:30;541
06.01.2023;09:30;09:45;558
06.01.2023;09:45;10:00;560
06.01.2023;10:00;10:15;567
06.01.2023;10:15;10:30;589
06.01.2023;10:30;10:45;605
06.01.2023;10:45;11:00;622
06.01.2023;11:00;11:15;629
06.01.2023;11:15;11:30;661
06.01.2023;11:30;11:45;665
06.01.2023;11:45;12:00;674
06.01.2023;12:00;12:15;657
06.01.2023;12:15;12:30;650
06.01.2023;12:30;12:45;680
06.01.2023;12:45;13:00;688
06.01.2023;13:00;13:15;678
06.01.2023;13:15;13:30;660
06.01.2023;13:30;13:45;663
06.01.2023;13:45;14:00;633
06.01.2023;14:00;14:15;602
06.01.2023;14:15;14:30;633
06.01.2023;14:30;14:45;617
06.01.2023;14:45;15:00;626
06.01.2023;15:00;15:15;621
06.01.2023;15:15;15:30;620
06.01.2023;15:30;15:45;614
06.01.2023;15:45;16:00;618
06.01.2023;16:00;16:15;620
06.01.2023;16:15;16:30;624
06.01.2023;16:30;16:45;668
06.01.2023;16:45;17:00;694
06.01.2023;17:00;17:15;725
06.01.2023;17:15;17:30;732
06.01.2023;17:30;17:45;771
06.01.2023;17:45;18:00;772
06.01.2023;18:00;18:15;766
06.01.2023;18:15;18:30;761
06.01.2023;18:30;18:45;769
06.01.2023;18:45;19:00;743
06.01.2023;19:00;19:15;714
06.01.2023;19:15;19:30;701
06.01.2023;19:30;19:45;690
06.01.2023;19:45;20:00;674
06.01.2023;20:00;20:15;644
06.01.2023;20:15;20:30;622
06.01.2023;20:30;20:45;650
06.01.2023;20:45;21:00;621
06.01.2023;21:00;21:15;653
06.01.2023;21:15;21:30;622
06.01.2023;21:30;21:45;603
06.01.2023;21:45;22:00;618
06.01.2023;22:00;22:15;617
06.01.2023;22:15;22:30;575
06.01.2023;22:30;22:45;601
06.01.2023;22:45;23:00;596
06.01.2023;23:00;23:15;551
06.01.2023;23:15;23:30;540
06.01.2023;23:30;23:45;521
07.01.2023;23:45;00:00;518
07.01.2023;00:00;00:15;494
07.01.2023;00:15;00:30;443
07.01.2023;00:30;00:45;432
07.01.2023;00:45;01:00;406
07.01.2023;01:00;01:15;377
07.01.2023;01:15;01:30;354
07.01.2023;01:30;01:45;343
07.01.2023;01:45;02:00;325
07.01.2023;02:00;02:15;308
07.01.2023;02:15;02:30;307
07.01.2023;02:30;02:45;300
07.01.2023;02:45;03:00;294
07.01.2023;03:00;03:15;291
07.01.2023;03:15;03:30;285
07.01.2023;03:30;03:45;284
07.01.2023;03:45;04:00;287
07.01.2023;04:00;04:15;286
07.01.2023;04:15;04:30;286
07.01.2023;04:30;04:45;284
07.01.2023;04:45;05:00;283
07.01.2023;05:00;05:15;295
07.01.2023;05:15;05:30;296
07.01.2023;05:30;05:45;300
07.01.2023;05:45;06:00;302
07.01.2023;06:00;06:15;308
07.01.2023;06:15;06:30;302
07.01.2023;06:30;06:45;309
07.01.2023;06:45;07:00;308
07.01.2023;07:00;07:15;315
07.01.2023;07:15;07:30;324
07.01.2023;07:30;07:45;335
07.01.2023;07:45;08:00;348
07.01.2023;08:00;08:15;381
07.01.2023;08:15;08:30;382
07.01.2023;08:30;08:45;412
07.01.2023;08:45;09:00;430
07.01.2023;09:00;09:15;467
07.01.2023;09:15;09:30;480
07.01.2023;09:30;09:45;512
07.01.2023;09:45;10:00;513
07.01.2023;10:00;10:15;530
07.01.2023;10:15;10:30;545
07.01.2023;10:30;10:45;563
07.01.2023;10:45;11:00;568
07.01.2023;11:00;11:15;596
07.01.2023;11:15;11:30;606
07.01.2023;11:30;11:45;624
07.01.2023;11:45;12:00;607
07.01.2023;12:00;12:15;614
07.01.2023;12:15;12:30;617
07.01.2023;12:30;12:45;622
07.01.2023;12:45;13:00;620
07.01.2023;13:00;13:15;615
07.01.2023;13:15;13:30;616
07.01.2023;13:30;13:45;624
07.01.2023;13:45;14:00;598
07.01.2023;14:00;14:15;602
07.01.2023;14:15;14:30;612
07.01.2023;14:30;14:45;595
07.01.2023;14:45;15:00;600
07.01.2023;15:00;15:15;586
07.01.2023;15:15;15:30;582
07.01.2023;15:30;15:45;603
07.01.2023;15:45;16:00;599
07.01.2023;16:00;16:15;608
07.01.2023;16:15;16:30;604
07.01.2023;16:30;16:45;616
07.01.2023;16:45;17:00;666
07.01.2023;17:00;17:15;683
07.01.2023;17:15;17:30;708
07.01.2023;17:30;17:45;729
07.01.2023;17:45;18:00;750
07.01.2023;18:00;18:15;736
07.01.2023;18:15;18:30;741
07.01.2023;18:30;18:45;739
07.01.2023;18:45;19:00;734
07.01.2023;19:00;19:15;701
07.01.2023;19:15;19:30;684
07.01.2023;19:30;19:45;687
07.01.2023;19:45;20:00;659
07.01.2023;20:00;20:15;646
07.01.2023;20:15;20:30;618
07.01.2023;20:30;20:45;637
07.01.2023;20:45;21:00;616
07.01.2023;21:00;21:15;634
07.01.2023;21:15;21:30;608
07.01.2023;21:30;21:45;594
07.01.2023;21:45;22:00;619
07.01.2023;22:00;22:15;617
07.01.2023;22:15;22:30;590
07.01.2023;22:30;22:45;599
07.01.2023;22:45;23:00;609
07.01.2023;23:00;23:15;578
07.01.2023;23:15;23:30;547
07.01.2023;23:30;23:45;554
08.01.2023;23:45;00:00;541
08.01.2023;00:00;00:15;528
08.01.2023;00:15;00:30;475
08.01.2023;00:30;00:45;454
08.01.2023;00:45;01:00;433
08.01.2023;01:00;01:15;398
08.01.2023;01:15;01:30;381
08.01.2023;01:30;01:45;363
08.01.2023;01:45;02:00;338
08.01.2023;02:00;02:15;326
08.01.2023;02:15;02:30;319
08.01.2023;02:30;02:45;300
08.01.2023;02:45;03:00;300
08.01.2023;03:00;03:15;299
08.01.2023;03:15;03:30;287
08.01.2023;03:30;03:45;292
08.01.2023;03:45;04:00;285
08.01.2023;04:00;04:15;285
08.01.2023;04:15;04:30;283
08.01.2023;04:30;04:45;286
08.01.2023;04:45;05:00;287
08.01.2023;05:00;05:15;297
08.01.2023;05:15;05:30;292
08.01.2023;05:30;05:45;298
08.01.2023;05:45;06:00;296
08.01.2023;06:00;06:15;303
08.01.2023;06:15;06:30;297
08.01.2023;06:30;06:45;300
08.01.2023;06:45;07:00;295
08.01.2023;07:00;07:15;305
08.01.2023;07:15;07:30;306
08.01.2023;07:30;07:45;313
08.01.2023;07:45;08:00;327
08.01.2023;08:00;08:15;342
08.01.2023;08:15;08:30;354
08.01.2023;08:30;08:45;387
08.01.2023;08:45;09:00;406
08.01.2023;09:00;09:15;432
08.01.2023;09:15;09:30;453
08.01.2023;09:30;09:45;490
08.01.2023;09:45;10:00;504
08.01.2023;10:00;10:15;535
08.01.2023;10:15;10:30;557
08.01.2023;10:30;10:45;585
08.01.2023;10:45;11:00;604
08.01.2023;11:00;11:15;624
08.01.2023;11:15;11:30;652
08.01.2023;11:30;11:45;673
08.01.2023;11:45;12:00;678
08.01.2023;12:00;12:15;704
08.01.2023;12:15;12:30;672
08.01.2023;12:30;12:45;662
08.01.2023;12:45;13:00;686
08.01.2023;13:00;13:15;657
08.01.2023;13:15;13:30;658
08.01.2023;13:30;13:45;658
08.01.2023;13:45;14:00;657
08.01.2023;14:00;14:15;629
08.01.2023;14:15;14:30;631
08.01.2023;14:30;14:45;625
08.01.2023;14:45;15:00;638
08.01.2023;15:00;15:15;628
08.01.2023;15:15;15:30;635
08.01.2023;15:30;15:45;622
08.01.2023;15:45;16:00;632
08.01.2023;16:00;16:15;628
08.01.2023;16:15;16:30;627
08.01.2023;16:30;16:45;640
08.01.2023;16:45;17:00;660
08.01.2023;17:00;17:15;723
08.01.2023;17:15;17:30;756
08.01.2023;17:30;17:45;779
08.01.2023;17:45;18:00;790
08.01.2023;18:00;18:15;801
08.01.2023;18:15;18:30;813
08.01.2023;18:30;18:45;794
08.01.2023;18:45;19:00;790
08.01.2023;19:00;19:15;770
08.01.2023;19:15;19:30;738
08.01.2023;19:30;19:45;730
08.01.2023;19:45;20:00;721
08.01.2023;20:00;20:15;677
08.01.2023;20:15;20:30;641
08.01.2023;20:30;20:45;673
08.01.2023;20:45;21:00;644
08.01.2023;21:00;21:15;663
08.01.2023;21:15;21:30;620
08.01.2023;21:30;21:45;597
08.01.2023;21:45;22:00;614
08.01.2023;22:00;22:15;605
08.01.2023;22:15;22:30;586
08.01.2023;22:30;22:45;586
08.01.2023;22:45;23:00;593
08.01.2023;23:00;23:15;542
08.01.2023;23:15;23:30;507
08.01.2023;23:30;23:45;498
09.01.2023;23:45;00:00;499
09.01.2023;00:00;00:15;464
09.01.2023;00:15;00:30;436
09.01.2023;00:30;00:45;421
09.01.2023;00:45;01:00;395
09.01.2023;01:00;01:15;371
09.01.2023;01:15;01:30;359
09.01.2023;01:30;01:45;337
09.01.2023;01:45;02:00;324
09.01.2023;02:00;02:15;320
09.01.2023;02:15;02:30;312
09.01.2023;02:30;02:45;309
09.01.2023;02:45;03:00;306
09.01.2023;03:00;03:15;305
09.01.2023;03:15;03:30;289
09.01.2023;03:30;03:45;293
09.01.2023;03:45;04:00;295
09.01.2023;04:00;04:15;303
09.01.2023;04:15;04:30;310
09.01.2023;04:30;04:45;316
09.01.2023;04:45;05:00;321
09.01.2023;05:00;05:15;332
09.01.2023;05:15;05:30;351
09.01.2023;05:30;05:45;357
09.01.2023;05:45;06:00;357
09.01.2023;06:00;06:15;388
09.01.2023;06:15;06:30;404
09.01.2023;06:30;06:45;446
09.01.2023;06:45;07:00;457
09.01.2023;07:00;07:15;481
09.01.2023;07:15;07:30;495
09.01.2023;07:30;07:45;504
09.01.2023;07:45;08:00;542
09.01.2023;08:00;08:15;546
09.01.2023;08:15;08:30;582
09.01.2023;08:30;08:45;576
09.01.2023;08:45;09:00;603
09.01.2023;09:00;09:15;620
09.01.2023;09:15;09:30;637
09.01.2023;09:30;09:45;620
09.01.2023;09:45;10:00;626
09.01.2023;10:00;10:15;628
09.01.2023;10:15;10:30;633
09.01.2023;10:30;10:45;631
09.01.2023;10:45;11:00;646
09.01.2023;11:00;11:15;656
09.01.2023;11:15;11:30;639
09.01.2023;11:30;11:45;605
09.01.2023;11:45;12:00;635
09.01.2023;12:00;12:15;641
09.01.2023;12:15;12:30;614
09.01.2023;12:30;12:45;666
09.01.2023;12:45;13:00;643
09.01.2023;13:00;13:15;632
09.01.2023;13:15;13:30;644
09.01.2023;13:30;13:45;683
09.01.2023;13:45;14:00;669
09.01.2023;14:00;14:15;678
09.01.2023;14:15;14:30;648
09.01.2023;14:30;14:45;619
09.01.2023;14:45;15:00;632
09.01.2023;15:00;15:15;635
09.01.2023;15:15;15:30;623
09.01.2023;15:30;15:45;626
09.01.2023;15:45;16:00;658
09.01.2023;16:00;16:15;681
09.01.2023;16:15;16:30;697
09.01.2023;16:30;16:45;715
09.01.2023;16:45;17:00;745
09.01.2023;17:00;17:15;808
09.01.2023;17:15;17:30;824
09.01.2023;17:30;17:45;847
09.01.2023;17:45;18:00;854
09.01.2023;18:00;18:15;873
09.01.2023;18:15;18:30;856
09.01.2023;18:30;18:45;854
09.01.2023;18:45;19:00;854
09.01.2023;19:00;19:15;840
09.01.2023;19:15;19:30;815